星链-5497 (STARLINK-5497 )

导读

STARLINK-5497是美国太空探索技术公司(SpaceX)星链星座的一员,于2023年2月17日发射入轨。星链项目旨在搭建全球卫星互联网星座,为全球提供高速宽带网络服务。作为低轨卫星,它可减少通信延迟、提升信号覆盖,服务偏远地区,同时推动卫星通信行业发展,在商业通信与应急通信领域发挥重要作用。

Basic Information
目录编号:
55629
目录名称:
STARLINK-5497
国际标识:
2023-021B
轨道中心:
EARTH
卫星名称:
星链-5497
卫星全名:
星链-5497 (STARLINK-5497 )
卫星状态:
在轨 (已飞行1214 天)
发射日期:
2023-02-17 UTC
国别 :
美国 (US)
星等 :
--
Orbit Information
数据来源 国际轨道数据 AOE轨道数据
星历时间 2026-06-15T00:18:46+0800
13小时前
查看轨道信息
2026-06-10T11:00:00+0800
5天前
查看轨道信息
半长轴 6950.19km 6950.2km
偏心率 0.0002714 0.0002067
轨道倾角 69.999° 69.999°
近地点辐角 263.687° 244.004°
升交点赤经 320.021° 331.504°
平近点角 96.398° 35.084°
近地点 570.166km 570.626km
远地点 573.94km 573.5km
周期 96.107分钟 96.107分钟
每日圈数 14.98331 14.98328
Detailed Information
固有亮度:
5
最大亮度:
2.5
卫星平台:
Starlink v1.5
覆盖范围:
全球
运营商:
太空探索技术公司
运营商所在国:
美国
制造商(研发单位):
太空探索技术公司
制造商所在国:
美国
使用方式:
暂无
Satellite Introduction
星链(Starlink)计划是由太空探索技术公司(SpaceX)提出的一个巨型低轨卫星互联网星座项目,计划在2019年至2024年间在太空搭建由约1.2万颗卫星组成的“星链”网络,其中1584颗将部署在地球上空550千米处的近地轨道,并从2020年开始工作。该卫星仍在工作。
2D Orbit Map
3D Orbit Map
Orbit Altitude Analysis Chart
Orbit Inclination Analysis Chart
Orbit Comprehensive Analysis Chart
View Comprehensive Chart